Regional Weather Roundup
Issued by NWS

Home | Current Version | Previous Version | Graphics & Text | Print | Product List | Glossary On
Versions: 1 2 3 4 5 6 7 8 9 10 11 12 13 14 15 16 17 18 19 20 21 22 23 24 25 26 27 28 29 30 31 32 33 34 35 36 37 38 39 40 41 42 43 44 45 46 47 48 49 50
186
ASUS43 KDMX 240601
RWRIA

WEATHER ROUNDUP FOR IOWA
NATIONAL WEATHER SERVICE DES MOINES IA
1200 AM CST SAT FEB 24 2018

NOTE: "FAIR" INDICATES FEW OR NO CLOUDS BELOW 12,000 FEET WITH NO
SIGNIFICANT WEATHER AND/OR OBSTRUCTIONS TO VISIBILITY.

* - THESE STATIONS ARE NOT NWS STATIONS...THUS NOT UNDER NWS
QUALITY CONTROL.  THEY ALSO DO NOT REPORT WEATHER SUCH
AS PRECIPITATION OR FOG.

IAZ001>003-012>014-020>022-031>034-043>046-240700-
   NORTHWEST IOWA

CITY           SKY/WX    TMP DP  RH WIND       PRES   REMARKS
CARROLL *      CLOUDY    23  21  93 E7        30.26F WCI  15
CHEROKEE *     CLOUDY    19  19 100 NE5       30.25F FOG     WCI  12
DENISON *      CLOUDY    21  21 100 E14       30.26F WCI   8
LE MARS *      FOG       18  18 100 NE6       30.25F VSB 1/2 WCI   9
ORANGE CITY *  FOG       18  18 100 E3        30.23F VSB 1/2
SHELDON *      FOG       16  16 100 E6        30.22F VSB<1/4 WCI   7
SIOUX CITY     FOG       18  17  96 E7        30.25F VSB 1   WCI   9
6HR MIN TEMP:  17; 6HR MAX TEMP:  21;

SPENCER        FOG       19  15  84 N6        30.25F VSB 1/4 WCI  11
6HR MIN TEMP:  18; 6HR MAX TEMP:  24;

STORM LAKE *   CLEAR     19  19 100 NE10      30.23F FOG     WCI   8
$$

IAZ055>058-069>071-079>083-090>094-240700-
   SOUTHWEST IOWA

CITY           SKY/WX    TMP DP  RH WIND       PRES   REMARKS
ATLANTIC *     CLOUDY    21  21 100 NE9G16    30.24F WCI  11
AUDUBON *      CLOUDY    21  19  93 NE10      30.24F FOG     WCI  10
CLARINDA *     CLOUDY    28  27  93 NE10G17   30.25S WCI  19
COUNCIL BLFS * CLOUDY    21  21 100 NE9       30.22F WCI  11
CRESTON *      CLOUDY    25  23  93 NE16      30.22F WCI  12
HARLAN  *      CLOUDY    21  21 100 NE8       30.27F WCI  12
LAMONI         CLOUDY    26  24  92 NE15      30.20F FOG     WCI  14
6HR MIN TEMP:  26; 6HR MAX TEMP:  34;

RED OAK *      CLOUDY    27  25  93 MISG      30.23F
SHENANDOAH *   CLOUDY    28  27  93 NE12      30.23S WCI  18
$$

IAZ047>049-059>061-072>074-084-240700-
   CENTRAL IOWA

CITY           SKY/WX    TMP DP  RH WIND       PRES   REMARKS
AMES           CLOUDY    23  20  88 N3        30.27F
6HR MIN TEMP:  22; 6HR MAX TEMP:  26;

ANKENY *       CLOUDY    25  21  86 NE8       30.29F WCI  16
BOONE *        CLOUDY    21  21 100 MISG      30.25F
CHARITON *     CLOUDY    27  25  93 NE13      30.23F WCI  16
DES MOINES     CLOUDY    26  21  81 NE8       30.27F WCI  18
6HR MIN TEMP:  26; 6HR MAX TEMP:  28;

GRINNELL*      PTCLDY    25  23  90 N8        30.27F WCI  17
KNOXVILLE *    CLOUDY    27  23  86 NE9       30.25F WCI  17
MARSHALLTOWN   PTCLDY    23  21  92 CALM      30.27F
6HR MIN TEMP:  23; 6HR MAX TEMP:  26;

NEWTON *       MOCLDY    25  23  93 NE6       30.27F WCI  18
PELLA *        CLOUDY    27  23  86 NE8       30.28F WCI  18
$$

IAZ004>006-015-016-023>025-035-036-240700-
   NORTH CENTRAL IOWA

CITY           SKY/WX    TMP DP  RH WIND       PRES   REMARKS
CLARION *      FOG        7   7 100 NE3       30.27F VSB<1/4
ESTHERVILLE    FOG       15  14  95 N5        30.25F VSB 1/4 WCI   8
6HR MIN TEMP:   5; 6HR MAX TEMP:  19;

FORT DODGE *   CLOUDY    11   9  92 CALM      30.26F FOG
MASON CITY     FOG       16  14  92 CALM      30.28F VSB 1/4
6HR MIN TEMP:  11; 6HR MAX TEMP:  22;

FOREST CITY *  FOG       12  10  92 CALM      30.26F VSB<1/4
WEBSTER CITY * FOG       10   7  85 CALM      30.25F VSB<1/4
IOWA FALLS *   FAIR      21  20  93 CALM      30.28F
$$

IAZ007>011-017>019-026>030-037>042-050>054-066-240700-
   NORTHEAST IOWA

CITY           SKY/WX    TMP DP  RH WIND       PRES   REMARKS
CEDAR RAPIDS   FAIR      24  20  84 N8        30.26F FOG     WCI  15
6HR MIN TEMP:  24; 6HR MAX TEMP:  30;

CHARLES CITY * FAIR      18  19 100 NW5       30.28F WCI  11
CLINTON *      FAIR      28  27  96 NW5       30.29S WCI  23
DECORAH *      FAIR      21  19  93 CALM      30.27S
DUBUQUE        FAIR      25  21  85 N5        30.26F WCI  19
6HR MIN TEMP:  24; 6HR MAX TEMP:  30;

MONTICELLO *   FAIR      27  25  93 CALM      30.27F
OELWEIN *      FAIR      23  23 100 N5        30.28S WCI  17
WATERLOO       FAIR      22  20  92 N6        30.28F WCI  14
6HR MIN TEMP:  22; 6HR MAX TEMP:  27;

$$

IAZ064-065-067-068-078-240700-
   EAST CENTRAL IOWA

CITY           SKY/WX    TMP DP  RH WIND       PRES   REMARKS
DAVENPORT      FAIR      30  26  85 N7        30.29F WCI  23
6HR MIN TEMP:  30; 6HR MAX TEMP:  34;

IOWA CITY      FAIR      28  23  81 N3        30.29F
6HR MIN TEMP:  26; 6HR MAX TEMP:  33;

MT. PLEASANT * CLOUDY    30  28  93 N10       30.24F WCI  21
MUSCATINE *    FAIR      28  25  86 N6        30.28F WCI  22
QUAD CITIES    FAIR      30  26  85 N3        30.26F
6HR MIN TEMP:  30; 6HR MAX TEMP:  36;

$$

IAZ062-063-075>077-085>089-095>099-240700-
   SOUTHEAST IOWA

CITY           SKY/WX    TMP DP  RH WIND       PRES   REMARKS
BURLINGTON     CLOUDY    31  26  82 N12       30.22F WCI  22
6HR MIN TEMP:  30; 6HR MAX TEMP:  36;

FAIRFIELD *    PTCLDY    28  25  86 N12       30.23F WCI  18
FORT MADISON * CLOUDY    30  28  93 N8        30.23F WCI  23
KEOKUK *       MOCLDY    32  30  93 NE10G17   30.20F WCI  24
OSKALOOSA *    FAIR      27  25  93 N12       30.25F WCI  16
OTTUMWA        CLEAR     27  23  85 N13       30.24F WCI  16
6HR MIN TEMP:  27; 6HR MAX TEMP:  34;

WASHINGTON *   CLOUDY    28  28 100 N13       30.26F WCI  18
$$

ABBREVIATIONS USED IN REMARKS
   TC - TEMPERATURES IN CELSIUS
  WCI - WIND CHILL INDEX
   HX - HEAT INDEX
  VSB - VISIBILITY
$$





USA.gov is the U.S. government's official web portal to all federal, state and local government web resources and services.